Hourly Data Report for March 05, 2012

BAGOTVILLE A
QUEBEC

48°20'00.000" N
71°00'00.000" W
159.10 m
7060400
71727
YBG

Download Data

Hourly Data (March 2012)
Hourly Data Report for March 5, 2012
TIME
LST
Temp Definition
°C
Dew Point Definition
°C
Rel Hum Definition
%
Precip. Amount Definition
mm

Wind Dir Definition
10's deg

Wind Spd Definition
km/h
Visibility Definition
km
Stn Press Definition
kPa
Hmdx Definition


Wind Chill Definition


Weather Definition


00:00 -12.5 -14.5 85     0 3.2 98.49     Snow
01:00 -13.1 -15.1 85     0 6.4 98.51     Snow
02:00 -13.1 -14.7 88     0 6.4 98.56     Snow
03:00 -13.2 -15.2 85     0 6.4 98.60     Snow
04:00 -13.1 -15.1 85   29 4 9.7 98.67   -16 Snow
05:00 -12.6 -14.1 89   27 4 4.8 98.75   -15 Snow
06:00 -13.1 -15.1 85   27 6 6.4 98.84   -17 Snow
07:00 -14.0 -16.2 83   27 6 8.0 98.95   -18 Snow
08:00 -12.7 -15.6 79   28 7 6.4 99.05   -17 Snow
09:00 -12.1 -14.9 80   29 9 6.4 99.15   -17 Snow
10:00 -10.9 -13.5 81   28 9 4.0 99.21   -16 Snow
11:00 -9.4 -13.0 75   28 11 16.1 99.30   -15 Mainly Clear
12:00 -8.7 -13.4 69   28 11 16.1 99.38   -14 Mainly Clear
13:00 -7.8 -11.8 73   29 13 16.1 99.44   -14 Mainly Clear
14:00 -7.8 -12.2 71   29 17 16.1 99.53   -14 Mainly Clear
15:00 -7.6 -12.8 66   30 17 24.1 99.64   -14 Mainly Clear
16:00 -8.2 -13.2 67   30 17 24.1 99.75   -15 Mainly Clear
17:00 -9.7 -14.3 69   27 13 32.2 99.87   -16 Mainly Clear
18:00 -12.0 -15.3 76   27 13 24.1 100.01   -19 Mainly Clear
19:00 -12.0 -15.8 73   28 11 24.1 100.12   -18 Mainly Clear
20:00 -13.2 -16.3 77   26 6 24.1 100.22   -17 Mainly Clear
21:00 -13.8 -16.4 81   22 4 24.1 100.31   -17 Mostly Cloudy
22:00 -12.2 -14.6 82   29 4 24.1 100.40   -15 Mostly Cloudy
23:00 -11.4 -13.6 84   27 17 24.1 100.44   -19 Mostly Cloudy

Notes on Data Quality.

Legend

  • E = Estimated
  • M = Missing
  • NA = Not Available*
  • [empty] = Indicates an unobserved value
Date modified: